Regional Weather Roundup
Issued by NWS Newport/Morehead, NC

Current Version | Previous Version | Text Only | Print | Product List | Glossary On
Versions: 1 2 3 4 5 6 7 8 9 10 11 12 13 14 15 16 17 18 19 20 21 22 23 24 25 26 27 28 29 30 31 32 33 34 35 36 37 38 39 40 41 42 43 44 45 46 47 48 49 50
000
ASUS42 KMHX 161922
RWRMHX
WEATHER ROUNDUP FOR EASTERN NORTH CAROLINA
NATIONAL WEATHER SERVICE NEWPORT/MOREHEAD CITY NC
300 PM EDT WED APR 16 2014

NOTE: "FAIR" INDICATES FEW OR NO CLOUDS BELOW 12,000 FEET
WITH NO SIGNIFICANT WEATHER AND/OR OBSTRUCTIONS TO VISIBILITY

NCZ015>017-031-032-045>047-102-103-162000-
NORTH COAST

CITY           SKY/WX    TMP DP  RH WIND       PRES   REMARKS
EDENTON        SUNNY     51  26  37 NE13G20   30.38S
ELIZABETH CITY SUNNY     49  31  49 N16G28    30.39S
KITTY HAWK     CLEAR     44  27  51 N13G23    30.38S
MANTEO         SUNNY     45  28  51 NE22      30.39S

$$

NCZ045>047-081-094-103-104-162000-
CENTRAL COAST

CITY           SKY/WX    TMP DP  RH WIND       PRES   REMARKS
FRISCO         PTSUNNY   45  32  60 NE16G30   30.36R
SWANQUARTER      N/A     50 N/A N/A N7G29     30.33S

$$

NCZ095-097-098-100-101-162000-
SOUTHERN COAST

CITY           SKY/WX    TMP DP  RH WIND       PRES   REMARKS
BEAUFORT       MOSUNNY   53  33  46 NE17G30   30.33F
CEDAR ISLAND     N/A     50 N/A N/A N21G29    30.39S
JACKSONVILLE   SUNNY     54  28  36 N18G25    30.33F
NEWPORT          N/A     52  32  46 N10         N/A
PINEY ISLAND   PTCLDY    53  35  50 N18G29    30.35S
WILMINGTON     SUNNY     57  27  31 N17       30.33S


$$

NCZ011>013-027>030-043-044-078>080-089-090>093-098-162000-
COASTAL PLAIN

CITY           SKY/WX    TMP DP  RH WIND       PRES   REMARKS
AHOSKIE        SUNNY     49  24  37 NE12      30.39F
CLINTON        SUNNY     53  29  39 NE12G17   30.36F
ELIZABETHTOWN  SUNNY     54  27  35 NE5       30.34F
GOLDSBORO      SUNNY     52  25  35 N13       30.34F
GREENVILLE     SUNNY     52  27  37 NE14G23   30.37F
HAVELOCK       MOSUNNY   53  29  39 NE20      30.35S
KENANSVILLE    SUNNY     51  25  35 E8        30.36F
KINSTON        SUNNY     52  27  37 N8G21     30.36F
NEW BERN       SUNNY     53  28  38 NE14G21   30.36F
RICHLANDS      SUNNY     54  27  35 N13G22    30.34F
ROANOKE RAPIDS NOT AVBL
ROCKY MOUNT      N/A    N/A N/A N/A MISG      30.37F
WASHINGTON     SUNNY     54  20  27 NE13G20   30.36F
WHITEVILLE     SUNNY     54  29  37 N8        30.33F

$$

AMZ130-135-150-152-154-156-158-170-250-252-270-ANZ085-086-088-633-658-670-162000-
MARINE OBSERVATIONS

STATION/POSITION TIME  TEMP    WIND        PRES    WAVE   SWELL
                       AIR SEA DIR/SP/G            HT/PER HT/PER
                 (UTC) (F)     (DEG/KT/KT) (MB)    (FT/S) (FT/S)
CHESAPEAKE LIGHT 1900   41      30/ 14/ 16 1029.9
BUOY 44014       1900   42 65   10/ 23/ 29 1028.1   11/ 9   7/ 9
DUCK             1900   41 48   20/ 21/ 26 1028.1
2E DUCK          1900      47                N/A     7/ 8   2/11
OREGON INLET     1900   44 55   10/ 18/ 24 1028.4
BUOY 44095       1900      60                N/A    10/ 9   2/11
HATTERAS CG      1900   45 59   20/ 13/ 27 1028.0
DIAMOND BUOY     NOT AVBL
CAPE LOOKOUT     1900   49      30/ 21/ 26 1026.9
BEAUFORT LAB     1900   49 62   10/ 20/ 25 1026.7
30 SE NEW RIVER  1900   49 63   30/ 21/ 27 1027.1    6/ 8   3/ 8
5 SE WRIGHTSVILL 1900   50 60   70/ 17/ 19 1026.9
FRYING PAN BUOY  1900   49 64   50/ 21/ 27 1026.1    7/ 7   3/ 8
BUOY 41001       NOT AVBL
BUOY 41002       NOT AVBL
BUOY 41004       NOT AVBL

$$



USA.gov is the U.S. government's official web portal to all federal, state and local government web resources and services.